GW3796 Weather Reports


time (UTC)temp
C
wind
direction
speed
KPH
gust
KPH
rain 1hr
cm
rain 24hr
cm
rain mn
cm
humidity
%
barometer
mb
20260506051021 16 39 4.8 6.4 0.00 0.00 0.00 75 1010.0
20260506045023 16 14 4.8 8.0 0.00 0.00 0.00 75 1010.0
20260506044041 16 354 4.8 8.0 0.00 0.00 0.00 74 1009.8
20260506043025 16 39 4.8 9.7 0.00 0.00 0.00 74 1010.0
20260506042042 17 246 4.8 6.4 0.00 0.00 0.00 74 1009.9
20260506041023 17 187 3.2 6.4 0.00 0.00 0.00 74 1009.9
20260506040038 17 305 4.8 11.3 0.00 0.00 0.00 73 1009.6
20260506035022 17 192 4.8 9.7 0.00 0.00 0.00 73 1009.6
20260506034039 17 7 3.2 9.7 0.00 0.00 0.00 73 1009.4
20260506033023 18 128 4.8 8.0 0.00 0.00 0.00 71 1009.0
20260506032042 18 45 3.2 6.4 0.00 0.00 0.00 72 1008.8
20260506031039 18 50 3.2 8.0 0.00 0.00 0.00 72 1008.7
20260506030044 19 32 3.2 8.0 0.00 0.00 0.00 71 1008.5
20260506025021 19 184 3.2 6.4 0.00 0.00 0.00 70 1008.5
20260506024018 19 142 3.2 6.4 0.00 0.00 0.00 70 1008.1
20260506023022 20 313 3.2 6.4 0.00 0.00 0.00 69 1008.0
20260506022051 20 112 3.2 6.4 0.00 0.00 0.00 69 1007.9
20260506021049 20 61 3.2 8.0 0.00 0.00 0.00 69 1007.7
20260506020043 20 291 4.8 11.3 0.00 0.00 0.00 68 1007.6
20260506015025 20 336 1.6 6.4 0.00 0.00 0.00 69 1007.1
20260506014023 20 225 3.2 4.8 0.00 0.00 0.00 68 1006.8
20260506013020 21 233 3.2 6.4 0.00 0.00 0.00 68 1006.8
20260506012019 21 18 3.2 6.4 0.00 0.00 0.00 68 1006.7
20260506011028 21 7 3.2 6.4 0.00 0.00 0.00 67 1006.6
20260506010026 22 341 3.2 8.0 0.00 0.00 0.00 66 1006.3
20260506005019 22 131 3.2 9.7 0.00 0.00 0.00 67 1006.0
20260506004022 22 16 1.6 4.8 0.00 0.00 0.00 66 1006.1
20260506003020 22 36 3.2 6.4 0.00 0.00 0.00 65 1005.6
20260506002049 23 274 4.8 9.7 0.00 0.00 0.00 64 1005.8
20260506001026 23 296 4.8 9.7 0.00 0.00 0.00 63 1005.3
20260506000041 25 179 6.4 11.3 0.00 0.00 0.00 61 1005.5
20260505235025 25 213 4.8 9.7 0.00 0.00 0.00 59 1005.4
20260505234020 25 279 4.8 6.4 0.00 0.00 0.00 58 1005.4
20260505233058 26 181 4.8 12.9 0.00 0.00 0.00 58 1005.3
20260505232030 26 259 3.2 6.4 0.00 0.00 0.00 57 1005.3
20260505231105 27 285 4.8 8.0 0.00 0.00 0.00 55 1005.2
20260505230020 27 254 4.8 8.0 0.00 0.00 0.00 54 1005.2
20260505225021 28 186 4.8 6.4 0.00 0.00 0.00 54 1005.1
20260505224039 29 279 4.8 9.7 0.00 0.00 0.00 53 1004.9
20260505223028 30 269 4.8 6.4 0.00 0.00 0.00 52 1004.9
20260505222046 31 242 4.8 11.3 0.00 0.00 0.00 46 1004.7
20260505221024 31 238 3.2 6.4 0.00 0.00 0.00 45 1004.7
20260505220019 31 89 3.2 6.4 0.00 0.00 0.00 45 1004.4
20260505215020 32 236 4.8 8.0 0.00 0.00 0.00 42 1004.6
20260505214029 32 179 3.2 4.8 0.00 0.00 0.00 43 1004.8
20260505213027 31 223 4.8 9.7 0.00 0.00 0.00 44 1004.7
20260505212025 33 225 4.8 11.3 0.00 0.00 0.00 43 1004.7
20260505211023 33 211 6.4 11.3 0.00 0.00 0.00 43 1004.9
20260505210021 33 204 9.7 12.9 0.00 0.00 0.00 42 1004.9
20260505205018 33 222 6.4 12.9 0.00 0.00 0.00 43 1005.0
20260505204028 33 208 9.7 16.1 0.00 0.00 0.00 43 1005.1
20260505203026 33 188 8.0 11.3 0.00 0.00 0.00 45 1005.2
20260505202024 32 191 8.0 14.5 0.00 0.00 0.00 47 1005.2
20260505201022 32 251 6.4 11.3 0.00 0.00 0.00 47 1005.4
20260505200021 32 194 9.7 17.7 0.00 0.00 0.00 47 1005.5
20260505195030 32 194 9.7 17.7 0.00 0.00 0.00 46 1005.5
20260505194047 32 207 8.0 12.9 0.00 0.00 0.00 48 1005.5
20260505193026 32 202 9.7 14.5 0.00 0.00 0.00 50 1005.4
20260505192022 32 194 8.0 12.9 0.00 0.00 0.00 51 1005.5
20260505191020 31 194 9.7 14.5 0.00 0.00 0.00 52 1005.5
20260505190052 31 211 11.3 16.1 0.00 0.00 0.00 53 1005.4
20260505185029 30 172 9.7 19.3 0.00 0.00 0.00 54 1005.4
20260505184028 30 205 11.3 17.7 0.00 0.00 0.00 56 1005.4
20260505183023 30 197 6.4 11.3 0.00 0.00 0.00 57 1005.4
20260505182021 30 182 9.7 16.1 0.00 0.00 0.00 57 1005.5
20260505181019 30 183 8.0 16.1 0.00 0.00 0.00 59 1005.3
20260505180028 29 179 8.0 14.5 0.00 0.00 0.00 59 1005.5
20260505175030 28 171 12.9 20.9 0.00 0.00 0.00 60 1005.6
20260505174025 29 200 8.0 14.5 0.00 0.00 0.00 61 1005.6
20260505173022 29 176 11.3 16.1 0.00 0.00 0.00 60 1005.6
20260505172020 30 197 6.4 12.9 0.00 0.00 0.00 60 1005.7
20260505171028 28 163 9.7 20.9 0.00 0.00 0.00 61 1005.6
20260505170027 28 168 9.7 14.5 0.00 0.00 0.00 61 1005.7
20260505165027 28 157 6.4 12.9 0.00 0.00 0.00 62 1005.6
20260505164027 28 154 8.0 12.9 0.00 0.00 0.00 62 1005.6
20260505163021 27 173 9.7 16.1 0.00 0.00 0.00 64 1005.6
20260505162019 27 203 8.0 12.9 0.00 0.00 0.00 65 1005.5
20260505161027 27 193 8.0 12.9 0.00 0.00 0.00 64 1005.5
20260505153020 25 174 8.0 16.1 0.00 0.00 0.00 70 1005.1
20260505152028 25 184 8.0 14.5 0.00 0.00 0.00 70 1005.2
20260505151026 25 154 8.0 12.9 0.00 0.00 0.00 69 1005.2
20260505124020 21 193 6.4 11.3 0.00 0.00 0.00 83 1004.6
20260505123027 21 147 6.4 11.3 0.00 0.00 0.00 84 1004.5
20260505122025 21 166 3.2 8.0 0.00 0.00 0.00 84 1004.3
20260505121022 20 177 4.8 8.0 0.00 0.00 0.00 85 1004.2
20260505120021 20 176 4.8 9.7 0.00 0.00 0.00 85 1004.1
20260505115021 20 130 4.8 11.3 0.00 0.00 0.00 85 1004.2
20260505114018 20 148 4.8 8.0 0.00 0.00 0.00 85 1004.1
20260505113026 20 164 4.8 9.7 0.00 0.00 0.00 85 1004.0
20260505112024 20 144 4.8 9.7 0.00 0.00 0.00 85 1004.0
20260505111041 20 117 6.4 14.5 0.00 0.00 0.00 85 1004.1
20260505102022 20 167 4.8 9.7 0.00 0.00 0.00 84 1004.1
20260505101020 20 133 6.4 11.3 0.00 0.00 0.00 84 1004.0
20260505100042 21 148 4.8 6.4 0.00 0.00 0.00 83 1004.2
20260505095019 21 142 6.4 14.5 0.00 0.00 0.00 83 1004.4
20260505094028 21 189 6.4 14.5 0.00 0.00 0.00 83 1004.2
20260505093023 21 163 8.0 12.9 0.00 0.00 0.00 82 1004.2
20260505092021 21 169 6.4 12.9 0.00 0.00 0.00 82 1004.4
20260505091019 21 198 8.0 12.9 0.00 0.00 0.00 81 1004.6
20260505090022 21 178 8.0 14.5 0.00 0.00 0.00 81 1004.7
20260505085026 21 248 8.0 17.7 0.00 0.00 0.00 80 1004.7
20260505084024 21 147 8.0 12.9 0.00 0.00 0.00 79 1004.7
20260505083022 22 94 8.0 16.1 0.00 0.00 0.00 78 1004.7
20260505082039 22 139 6.4 11.3 0.00 0.00 0.00 78 1004.7
20260505081023 22 161 8.0 12.9 0.00 0.00 0.00 77 1004.4
20260505080020 22 197 8.0 12.9 0.00 0.00 0.00 76 1004.7
20260505075024 22 153 8.0 14.5 0.00 0.00 0.00 75 1004.7
20260505074042 22 178 6.4 12.9 0.00 0.00 0.00 75 1004.9
20260505073020 22 185 8.0 11.3 0.00 0.00 0.00 74 1005.1
20260505072019 22 143 6.4 12.9 0.00 0.00 0.00 74 1005.4
20260505071102 22 101 8.0 14.5 0.00 0.00 0.00 73 1005.5
20260505070019 22 190 6.4 12.9 0.00 0.00 0.00 72 1005.5
20260505065024 22 144 8.0 14.5 0.00 0.00 0.00 72 1005.6
20260505064022 22 229 6.4 11.3 0.00 0.00 0.00 71 1005.8
20260505063019 23 193 8.0 17.7 0.00 0.00 0.00 71 1005.9
20260505062024 23 151 8.0 14.5 0.00 0.00 0.00 70 1006.0
20260505061101 23 162 8.0 16.1 0.00 0.00 0.00 70 1005.9